Regional Weather Roundup
Issued by NWS

Home | Current Version | Previous Version | Text Only | Print | Product List | Glossary On
Versions: 1 2 3 4 5 6 7 8 9 10 11 12 13 14 15 16 17 18 19 20 21 22 23 24 25 26 27 28 29 30 31 32 33 34 35 36 37 38 39 40 41 42 43 44 45 46 47 48 49 50
000
ASUS43 KLSX 170807
RWRMO

WEATHER SUMMARY FOR MISSOURI
NATIONAL WEATHER SERVICE SPRINGFIELD MO
300 AM CDT WED SEP 17 2014

NOTE: "FAIR" INDICATES FEW OR NO CLOUDS BELOW 12,000 FEET WITH NO
       SIGNIFICANT WEATHER AND/OR OBSTRUCTIONS TO VISIBILITY.
       CURRENT SKY AND/OR WEATHER CONDITIONS ARE NOT AVAILABLE FOR
       CHILLICOTHE AND FARMINGTON.

MOZ001>031-035>038-043-044-053-054-170900-
...NORTHERN AND WESTERN MISSOURI...

CITY           SKY/WX    TMP DP  RH WIND       PRES   REMARKS
KANSAS CTY INT CLOUDY    63  58  83 SE7       29.98F
KANSAS C DTWN  MOCLDY    66  58  75 CALM      29.98F
LEE`S SUMMIT   CLOUDY    63  58  83 S7        30.00F
ST JOSEPH      CLOUDY    62  57  83 SE3       29.98F
CHILLICOTHE      N/A     59  54  83 SE3       30.02F
KIRKSVILLE     MOCLDY    52  51  97 SE6       30.03F

$$
MOZ066>068-077>081-088>096-101>105-170900-
...SOUTHWEST MISSOURI...

CITY           SKY/WX    TMP DP  RH WIND       PRES   REMARKS
SPRINGFIELD    CLOUDY    64  63  96 S13       30.03S FOG
JOPLIN         PTCLDY    66  65  96 S8        30.00F

$$
MOZ032>034-039>042-045>050-055>058-069>072-170900-
...CENTRAL MISSOURI...

CITY           SKY/WX    TMP DP  RH WIND       PRES   REMARKS
COLUMBIA         N/A    N/A N/A N/A MISG      30.04F
JEFFERSON CITY CLOUDY    56  55  97 SE5       30.04F
ROLLA          CLOUDY    57  54  89 SE8       30.05S
SEDALIA        CLOUDY    62  58  86 S7        30.02F
WHITEMAN AFB   MOCLDY    62  59  91 SE5       30.00F
OSAGE BEACH    CLOUDY    61  55  82 SE3       30.04F

$$
MOZ051-052-059>065-170900-
...EAST CENTRAL MISSOURI...

CITY           SKY/WX    TMP DP  RH WIND       PRES   REMARKS
ST LOUIS INTL  CLEAR     54  50  86 CALM      30.08F
SPIRIT OF STL  FOG       48  47  96 CALM      30.07S VSB 1/4
ST CHARLES     MOCLDY    47  46  97 CALM      30.07F

$$
MOZ072>076-082>087-097>100-106>115-170900-
...SOUTH CENTRAL AND SOUTHEAST MISSOURI...

CITY           SKY/WX    TMP DP  RH WIND       PRES   REMARKS
CAPE GIRARDEAU FOG       47  46  97 CALM      30.08F VSB 3/4
FARMINGTON     CLOUDY    52  48  87 CALM      30.10S
POPLAR BLUFF   CLOUDY    57  52  83 CALM      30.07F
WEST PLAINS    CLOUDY    63  59  87 S5        30.08S

$$


USA.gov is the U.S. government's official web portal to all federal, state and local government web resources and services.